Welcome to Crazy Orc, l'antre du jeu de rôles à Lyon. Please login or sign up.

19 Avril 2024 à 01:52:03

Login with username, password and session length

Crazy Orc, l'antre du jeu de rôles à Lyon - Centre de statistiques

Statistiques générales

Total des membres:
786
Total des messages:
98433
Total des sujets:
4311
Total des catégories:
4
Membres en ligne:
372
Connexions simultanées:
808 - 21 Janvier 2020 à 20:55:59
En ligne aujourd'hui:
348
Total des pages vues:
42199305
Moyenne des inscriptions par jour:
0.26
Moyenne des messages par jour:
22.76
Moyenne des sujets par jour:
1.04
Total des sections:
40
Dernier membre:
BomberSquad
Moyenne d'utilisateurs connectés par jour:
53.51
Statistiques des sexes:
Ne pas afficher: 363
Masculin: 353
Féminin: 70
Pages vues en moyenne par jour:
6748.65

Top 10 des posteurs

ManuDevil
7064
GroumpH
5098
nunch
3857
LeDupontesque
3084
jules
3026
Mandy
2883
Scratchy
2766
MAO
2493
snake
1947
Le0
1878

Top lanceurs de sujets

nunch
600
Morithil
454
ManuDevil
292
GroumpH
246
Scratchy
132
MAO
110
LeDupontesque
106
jules
99
snake
92
CCCP
86

Le plus de temps en ligne

Mandy
133 j 19 h 59 m
GroumpH
112 j 9 h 16 m
CCCP
88 j 22 h 12 m
Nukeflow
73 j 8 h 19 m
ManuDevil
69 j 10 h 0 m
Felipe
61 j 12 h 19 m
dao
56 j 17 h 58 m
nunch
49 j 1 h 47 m
Patate
43 j 7 h 14 m
Rh
42 j 23 h 32 m

Les utilisateurs les plus aimés

ManuDevil
78
Arkana31
73
Morithil
25
MJulien
24
Phil
22
LeDupontesque
22
Lionhell
20
Patate
18
DeReel (il)
16
Haley Lektrik
12

Historique du forum (basé sur l'heure interne du forum)

Résumé annuel Nouveaux sujets Nouveaux messages Nouveaux membres Connexions simultanées Pages vues
* 2024 45 341 49 553 2895506
Avril 2024 2 34 4 422 388026
Mars 2024 14 105 12 553 672303
Février 2024 17 116 25 349 567612
Janvier 2024 12 86 8 301 1267565
* 2023 193 1234 127 260 5271275
Décembre 2023 17 64 5 260 1399734
Novembre 2023 12 123 14 217 909538
Octobre 2023 21 141 12 187 333148
Septembre 2023 19 182 18 138 366302
Août 2023 8 42 7 130 236673
Juillet 2023 6 39 4 140 269774
Juin 2023 23 109 10 159 303581
Mai 2023 23 124 16 182 262587
2023-05-01 1 5 2 39 6613
2023-05-02 0 1 0 22 4380
2023-05-03 0 3 0 81 6320
2023-05-04 0 8 1 122 10540
2023-05-05 0 2 0 94 10342
2023-05-06 1 10 2 117 17372
2023-05-07 1 3 1 105 8489
2023-05-08 0 1 0 123 10944
2023-05-09 0 5 0 106 8875
2023-05-10 0 6 1 107 8747
2023-05-11 1 4 0 133 11786
2023-05-12 5 10 1 154 11994
2023-05-13 2 11 1 164 13595
2023-05-14 0 1 1 182 15091
2023-05-15 3 5 2 163 5971
2023-05-16 0 0 0 142 7642
2023-05-17 0 0 0 60 8190
2023-05-18 0 2 0 95 8180
2023-05-19 0 4 0 53 5120
2023-05-20 0 6 1 85 8977
2023-05-21 3 7 0 116 6809
2023-05-22 1 2 0 88 4921
2023-05-23 0 1 0 82 6857
2023-05-24 0 7 1 68 9821
2023-05-25 0 1 0 68 7668
2023-05-26 0 5 1 52 5976
2023-05-27 0 6 0 58 5525
2023-05-28 0 0 0 125 5904
2023-05-29 0 1 0 94 6814
2023-05-30 0 1 0 98 7419
2023-05-31 5 6 1 82 5705
Avril 2023 19 159 11 174 284480
2023-04-01 0 5 0 106 8488
2023-04-02 2 3 0 107 7953
2023-04-03 0 0 0 103 8959
2023-04-04 0 0 0 140 17213
2023-04-05 0 1 0 104 7906
2023-04-06 1 4 0 96 10135
2023-04-07 1 2 0 77 10201
2023-04-08 1 3 1 100 10378
2023-04-09 0 6 0 105 11096
2023-04-10 0 4 0 105 9649
2023-04-11 0 7 0 100 8842
2023-04-12 0 6 1 174 10344
2023-04-13 1 1 1 139 9600
2023-04-14 1 6 2 131 10210
2023-04-15 0 14 0 95 10393
2023-04-16 1 7 1 73 7512
2023-04-17 0 2 0 113 9168
2023-04-18 0 5 1 142 7872
2023-04-19 0 6 0 147 9814
2023-04-20 5 9 0 127 11318
2023-04-21 1 12 1 94 18142
2023-04-22 0 14 0 87 20195
2023-04-23 0 7 1 78 5204
2023-04-24 1 2 0 101 6972
2023-04-25 0 7 1 96 7999
2023-04-26 0 8 0 150 8141
2023-04-27 4 8 1 71 7650
2023-04-28 0 3 0 22 4030
2023-04-29 0 5 0 32 3912
2023-04-30 0 2 0 19 5184
Mars 2023 13 86 6 155 330966
Février 2023 13 62 5 165 274947
Janvier 2023 19 103 19 148 299545
* 2022 183 1154 96 261 3778792
Décembre 2022 9 37 1 161 306381
Novembre 2022 16 103 6 261 350274
Octobre 2022 11 120 17 208 290108
2022-10-01 0 0 0 46 10196
2022-10-02 0 2 0 45 6099
2022-10-03 0 6 2 63 9412
2022-10-04 1 5 1 114 7925
2022-10-05 0 2 0 119 10788
2022-10-06 0 2 0 135 8531
2022-10-07 0 5 1 86 8823
2022-10-08 0 2 1 99 11829
2022-10-09 0 0 0 117 10515
2022-10-10 0 0 0 132 13266
2022-10-11 0 7 1 144 10128
2022-10-12 1 9 1 208 15786
2022-10-13 1 5 1 182 15119
2022-10-14 2 2 0 147 13116
2022-10-15 1 8 1 192 17135
2022-10-16 0 0 2 155 8626
2022-10-17 2 5 0 105 7879
2022-10-18 0 0 0 58 5903
2022-10-19 0 2 0 64 7645
2022-10-20 0 10 1 106 4198
2022-10-21 0 4 1 56 4202
2022-10-22 0 2 0 122 10015
2022-10-23 0 2 0 96 8013
2022-10-24 0 2 1 77 6882
2022-10-25 1 12 1 96 8317
2022-10-26 2 7 1 110 6687
2022-10-27 0 5 0 51 5051
2022-10-28 0 2 0 69 7681
2022-10-29 0 5 0 68 11986
2022-10-30 0 3 0 65 8226
2022-10-31 0 4 1 131 10129
Septembre 2022 17 115 6 258 357415
2022-09-01 0 0 0 128 16661
2022-09-02 0 0 0 121 10578
2022-09-03 0 4 0 109 9553
2022-09-04 1 11 1 86 11208
2022-09-05 0 4 0 82 15189
2022-09-06 0 2 0 79 11992
2022-09-07 0 11 0 90 7293
2022-09-08 4 5 0 83 12257
2022-09-09 0 3 1 82 24589
2022-09-10 1 4 0 79 10685
2022-09-11 0 5 0 98 9991
2022-09-12 0 0 0 83 10009
2022-09-13 0 6 0 87 10925
2022-09-14 0 1 0 104 13455
2022-09-15 0 2 0 106 14043
2022-09-16 0 2 0 93 8130
2022-09-17 0 7 0 71 8485
2022-09-18 3 9 0 42 7202
2022-09-19 0 3 0 42 7737
2022-09-20 0 1 0 54 7899
2022-09-21 0 3 0 97 9162
2022-09-22 0 2 0 59 7878
2022-09-23 1 9 1 109 11811
2022-09-24 1 5 2 40 8832
2022-09-25 1 2 0 258 12849
2022-09-26 0 1 0 115 13354
2022-09-27 0 0 0 119 15370
2022-09-28 5 11 1 164 29200
2022-09-29 0 0 0 52 10432
2022-09-30 0 2 0 49 10646
Août 2022 15 108 9 147 318817
Juillet 2022 13 69 4 208 308045
2022-07-01 0 3 1 130 10470
2022-07-02 0 0 0 126 12286
2022-07-03 0 0 0 105 10333
2022-07-04 0 0 0 125 10536
2022-07-05 0 2 1 208 12011
2022-07-06 1 2 0 120 9304
2022-07-07 0 1 0 104 9813
2022-07-08 0 4 0 144 6805
2022-07-09 1 3 0 107 5518
2022-07-10 0 2 0 74 7874
2022-07-11 0 2 0 84 8866
2022-07-12 0 0 0 80 13254
2022-07-13 0 0 0 90 14396
2022-07-14 0 0 0 87 13406
2022-07-15 0 0 0 85 13000
2022-07-16 0 0 0 87 10929
2022-07-17 0 0 0 84 10797
2022-07-18 0 2 0 87 10363
2022-07-19 0 6 0 87 11795
2022-07-20 0 9 0 90 9464
2022-07-21 0 4 0 81 7119
2022-07-22 0 6 0 88 10235
2022-07-23 0 5 0 82 12225
2022-07-24 0 0 0 89 9931
2022-07-25 0 0 0 88 8327
2022-07-26 0 0 0 80 8196
2022-07-27 10 11 0 79 8586
2022-07-28 1 2 1 80 5579
2022-07-29 0 1 1 116 6590
2022-07-30 0 2 0 109 11625
2022-07-31 0 2 0 101 8412
Juin 2022 14 76 4 62 333112
Mai 2022 16 118 8 91 339244
2022-05-01 0 6 0 50 6710
2022-05-02 0 2 2 44 5920
2022-05-03 0 2 0 44 6901
2022-05-04 0 6 0 48 11189
2022-05-05 0 1 0 47 12307
2022-05-06 0 1 0 60 23346
2022-05-07 0 6 1 61 29361
2022-05-08 1 5 1 91 19240
2022-05-09 1 12 0 72 14879
2022-05-10 0 2 0 61 15852
2022-05-11 0 0 0 59 11814
2022-05-12 2 14 1 43 8964
2022-05-13 0 5 0 58 6886
2022-05-14 0 2 0 32 8302
2022-05-15 0 0 0 39 10632
2022-05-16 7 9 0 59 11094
2022-05-17 1 6 1 40 9245
2022-05-18 0 3 0 43 9669
2022-05-19 0 3 0 36 10724
2022-05-20 0 4 0 47 13804
2022-05-21 0 5 0 46 8820
2022-05-22 1 2 0 45 8742
2022-05-23 2 2 0 45 9308
2022-05-24 0 4 1 52 9886
2022-05-25 0 2 0 48 7740
2022-05-26 0 3 0 47 8972
2022-05-27 0 2 0 49 7978
2022-05-28 1 3 1 47 7507
2022-05-29 0 2 0 43 5171
2022-05-30 0 3 0 49 8361
2022-05-31 0 1 0 49 9920
Avril 2022 18 133 12 61 254691
Mars 2022 15 123 8 65 281935
Février 2022 17 84 9 58 314588
Janvier 2022 22 68 12 70 324182
* 2021 129 756 53 338 4376522
Décembre 2021 8 37 0 129 661064
2021-12-01 0 1 0 86 10724
2021-12-02 0 6 0 91 7815
2021-12-03 0 0 0 93 7911
2021-12-04 0 5 0 92 10027
2021-12-05 2 2 0 86 10097
2021-12-06 0 0 0 129 7479
2021-12-07 0 0 0 101 8162
2021-12-08 0 2 0 42 6778
2021-12-09 0 0 0 40 7532
2021-12-10 4 6 0 55 7151
2021-12-11 0 1 0 42 9757
2021-12-12 0 0 0 53 12585
2021-12-13 0 2 0 48 10751
2021-12-14 0 0 0 40 13058
2021-12-15 0 1 0 35 11053
2021-12-16 0 3 0 50 9613
2021-12-17 0 1 0 47 11104
2021-12-18 0 0 0 42 9597
2021-12-19 0 2 0 48 9257
2021-12-20 2 2 0 45 10553
2021-12-21 0 0 0 47 10988
2021-12-22 0 0 0 44 14554
2021-12-23 0 1 0 47 43880
2021-12-24 0 1 0 46 49317
2021-12-25 0 0 0 47 49735
2021-12-26 0 0 0 44 48100
2021-12-27 0 1 0 41 54117
2021-12-28 0 0 0 37 47893
2021-12-29 0 0 0 38 54768
2021-12-30 0 0 0 38 48213
2021-12-31 0 0 0 38 48495
Novembre 2021 13 99 4 153 262314
Octobre 2021 20 208 15 159 298103
Septembre 2021 24 171 10 280 285455
Août 2021 11 33 7 73 231609
2021-08-01 0 0 0 28 9012
2021-08-02 0 0 0 33 10340
2021-08-03 0 0 0 48 9087
2021-08-04 0 0 0 39 6385
2021-08-05 0 0 1 40 5603
2021-08-06 0 0 0 40 9211
2021-08-07 0 0 0 40 10577
2021-08-08 0 0 0 36 10060
2021-08-09 0 0 0 40 11728
2021-08-10 0 0 0 55 10109
2021-08-11 0 0 0 37 6508
2021-08-12 0 0 0 39 8136
2021-08-13 1 3 1 41 6454
2021-08-14 2 5 1 37 6972
2021-08-15 0 0 0 43 9840
2021-08-16 0 0 0 38 13142
2021-08-17 0 0 0 45 7592
2021-08-18 0 0 1 38 6557
2021-08-19 0 0 0 37 6038
2021-08-20 2 2 0 37 6461
2021-08-21 0 0 0 48 6027
2021-08-22 0 0 0 40 2939
2021-08-23 0 1 0 35 3225
2021-08-24 0 1 0 41 6669
2021-08-25 3 7 1 50 9922
2021-08-26 1 1 0 73 2986
2021-08-27 0 0 0 35 2451
2021-08-28 0 1 1 33 5309
2021-08-29 0 0 0 32 8982
2021-08-30 2 6 1 32 7294
2021-08-31 0 6 0 42 5993
Juillet 2021 6 8 2 81 305173
2021-07-01 0 0 0 75 10036
2021-07-02 0 0 0 81 8440
2021-07-03 0 0 0 67 13230
2021-07-04 0 0 0 36 8785
2021-07-05 0 0 0 40 9194
2021-07-06 0 0 0 42 10481
2021-07-07 0 0 0 39 7665
2021-07-08 0 0 0 49 10484
2021-07-09 0 0 0 50 10282
2021-07-10 0 0 0 51 10523
2021-07-11 0 0 0 50 8246
2021-07-12 0 0 0 45 7596
2021-07-13 0 0 0 35 7852
2021-07-14 0 0 0 53 8163
2021-07-15 0 0 0 38 9082
2021-07-16 0 0 0 36 8446
2021-07-17 0 0 1 39 9669
2021-07-18 0 1 0 39 9019
2021-07-19 0 0 0 43 11040
2021-07-20 0 0 0 35 11389
2021-07-21 0 0 0 40 7890
2021-07-22 0 0 0 40 7654
2021-07-23 0 0 0 35 8792
2021-07-24 0 0 0 32 8114
2021-07-25 0 0 0 33 6522
2021-07-26 0 1 0 38 7728
2021-07-27 0 0 0 35 9299
2021-07-28 0 0 0 28 6500
2021-07-29 0 0 0 35 36222
2021-07-30 0 0 1 37 7791
2021-07-31 6 6 0 32 9039
Juin 2021 17 31 2 135 311168
Mai 2021 3 31 4 268 597777
Avril 2021 10 51 6 287 308355
Mars 2021 7 24 1 308 444900
2021-03-01 0 0 0 72 8645
2021-03-02 1 2 0 62 7066
2021-03-03 0 1 0 58 5404
2021-03-04 0 0 1 61 5201
2021-03-05 0 0 0 63 8432
2021-03-06 0 0 0 60 4862
2021-03-07 0 1 0 50 4615
2021-03-08 0 0 0 55 4461
2021-03-09 0 0 0 58 6240
2021-03-10 0 0 0 65 8568
2021-03-11 1 3 0 62 4993
2021-03-12 0 1 0 55 5378
2021-03-13 0 0 0 60 4371
2021-03-14 0 1 0 65 5377
2021-03-15 1 1 0 69 7164
2021-03-16 0 1 0 98 8406
2021-03-17 1 6 0 308 16132
2021-03-18 0 0 0 75 162827
2021-03-19 0 0 0 83 38605
2021-03-20 0 2 0 68 10275
2021-03-21 0 0 0 72 11763
2021-03-22 0 0 0 54 8930
2021-03-23 0 0 0 94 11374
2021-03-24 0 0 0 97 12163
2021-03-25 0 0 0 117 11569
2021-03-26 0 1 0 127 11884
2021-03-27 0 1 0 104 7707
2021-03-28 0 0 0 89 8951
2021-03-29 0 0 0 77 10399
2021-03-30 0 0 0 73 11056
2021-03-31 3 3 0 77 12082
Février 2021 5 29 2 338 223056
Janvier 2021 5 34 0 322 447548
* 2020 206 1716 105 808 4713463
Décembre 2020 6 38 2 320 310487
Novembre 2020 12 97 3 352 464426
Octobre 2020 21 169 7 346 497422
Septembre 2020 30 356 15 133 325183
Août 2020 16 147 7 163 471897
Juillet 2020 16 77 2 100 345760
2020-07-01 0 3 0 53 15128
2020-07-02 0 0 0 50 14023
2020-07-03 0 0 0 54 10055
2020-07-04 0 1 0 54 7181
2020-07-05 1 2 0 53 7390
2020-07-06 2 4 0 53 12535
2020-07-07 0 0 0 57 13793
2020-07-08 1 3 1 56 12452
2020-07-09 1 5 0 96 12087
2020-07-10 0 5 0 98 12988
2020-07-11 0 0 0 88 11107
2020-07-12 0 2 0 83 8142
2020-07-13 0 4 0 76 10295
2020-07-14 1 2 0 78 11064
2020-07-15 2 3 0 76 12030
2020-07-16 1 13 0 84 10150
2020-07-17 0 2 0 65 10880
2020-07-18 0 1 0 68 11217
2020-07-19 0 1 0 74 13216
2020-07-20 1 6 1 100 12998
2020-07-21 0 6 0 93 11786
2020-07-22 3 6 0 73 9832
2020-07-23 1 1 0 78 11746
2020-07-24 0 1 0 90 11406
2020-07-25 0 1 0 83 9782
2020-07-26 0 0 0 93 11234
2020-07-27 2 3 0 93 9667
2020-07-28 0 0 0 98 10158
2020-07-29 0 1 0 94 10268
2020-07-30 0 1 0 93 11155
2020-07-31 0 0 0 88 9995
Juin 2020 17 60 5 127 452817
Mai 2020 7 22 3 295 321652
Avril 2020 10 47 1 189 300030
Mars 2020 24 253 3 199 467854
Février 2020 18 171 9 323 281798
Janvier 2020 29 279 48 808 474137
* 2019 246 3411 313 446 3308531
Décembre 2019 18 159 26 446 351248
Novembre 2019 16 245 33 325 524135
Octobre 2019 24 272 59 121 189762
Septembre 2019 25 386 54 141 376708
2019-09-01 1 9 2 105 6240
2019-09-02 2 23 0 99 4858
2019-09-03 0 2 3 113 5936
2019-09-04 1 23 3 106 6478
2019-09-05 1 13 2 101 4820
2019-09-06 0 19 1 107 6729
2019-09-07 1 7 1 101 5312
2019-09-08 2 30 3 112 7337
2019-09-09 0 11 1 102 5572
2019-09-10 0 11 0 100 7902
2019-09-11 0 19 4 106 7070
2019-09-12 0 9 1 93 5907
2019-09-13 0 17 1 104 5766
2019-09-14 1 20 1 106 8380
2019-09-15 1 21 1 99 8495
2019-09-16 0 10 3 103 4957
2019-09-17 0 4 3 101 4911
2019-09-18 1 7 3 123 86629
2019-09-19 0 12 0 124 109596
2019-09-20 0 17 2 141 8262
2019-09-21 0 10 0 140 7838
2019-09-22 1 6 2 112 6839
2019-09-23 6 10 3 97 8328
2019-09-24 1 9 3 94 5944
2019-09-25 0 8 0 97 4935
2019-09-26 0 12 4 97 6015
2019-09-27 2 11 0 99 7899
2019-09-28 3 18 4 99 4761
2019-09-29 1 9 2 92 4842
2019-09-30 0 9 1 98 8150
Août 2019 22 257 31 122 225760
Juillet 2019 24 281 62 149 190301
2019-07-01 4 24 0 104 8142
2019-07-02 2 16 0 100 8838
2019-07-03 0 5 0 95 8928
2019-07-04 0 8 0 91 9284
2019-07-05 1 10 1 91 6175
2019-07-06 0 3 0 83 4015
2019-07-07 0 3 0 89 3603
2019-07-08 0 20 1 83 4139
2019-07-09 0 11 0 90 7781
2019-07-10 1 12 1 84 9897
2019-07-11 0 15 0 91 7893
2019-07-12 1 10 0 94 4561
2019-07-13 0 1 0 88 3908
2019-07-14 0 4 0 88 7782
2019-07-15 0 8 0 92 8996
2019-07-16 0 0 0 84 6713
2019-07-17 0 7 1 92 7822
2019-07-18 1 7 1 131 5964
2019-07-19 3 17 0 88 3871
2019-07-20 0 7 1 86 4460
2019-07-21 0 6 1 149 3654
2019-07-22 1 6 0 116 4333
2019-07-23 0 3 0 124 2777
2019-07-24 0 0 0 108 5144
2019-07-25 1 6 8 136 6264
2019-07-26 0 7 14 131 6609
2019-07-27 0 6 4 131 6579
2019-07-28 0 10 6 129 5658
2019-07-29 1 17 9 110 5459
2019-07-30 7 10 6 134 5038
2019-07-31 1 22 8 142 6014
Juin 2019 11 171 3 112 246519
Mai 2019 23 311 10 167 218891
Avril 2019 21 294 9 174 311459
Mars 2019 22 372 16 142 344146
Février 2019 18 288 4 110 142132
Janvier 2019 22 375 6 113 187470
* 2018 338 6176 81 641 2624946
Décembre 2018 43 306 8 253 421582
2018-12-01 1 13 0 108 10961
2018-12-02 0 3 1 109 14766
2018-12-03 0 17 0 108 18344
2018-12-04 0 4 0 111 20929
2018-12-05 1 19 1 111 11950
2018-12-06 8 18 0 111 14660
2018-12-07 13 27 0 107 14549
2018-12-08 2 12 0 100 8121
2018-12-09 4 26 0 97 8912
2018-12-10 0 12 0 94 9173
2018-12-11 1 7 0 104 7972
2018-12-12 0 13 0 253 12240
2018-12-13 2 10 0 245 6172
2018-12-14 0 17 1 134 6149
2018-12-15 0 6 0 160 5846
2018-12-16 2 14 1 106 5984
2018-12-17 2 10 0 104 5353
2018-12-18 0 9 0 98 5314
2018-12-19 0 5 0 100 3727
2018-12-20 0 3 0 96 2596
2018-12-21 0 5 0 23 4142
2018-12-22 0 2 0 24 6219
2018-12-23 0 5 0 21 8400
2018-12-24 0 2 0 18 10302
2018-12-25 1 2 0 23 11913
2018-12-26 0 7 0 22 8611
2018-12-27 1 1 1 24 17549
2018-12-28 0 2 2 24 151295
2018-12-29 5 13 0 49 2922
2018-12-30 0 17 1 49 3800
2018-12-31 0 5 0 46 2711
Novembre 2018 26 467 9 641 383363
Octobre 2018 34 527 6 321 248725
Septembre 2018 34 641 10 127 216306
Août 2018 32 583 16 101 188648
Juillet 2018 21 386 3 104 182475
Juin 2018 31 442 3 110 213303
Mai 2018 21 422 4 107 174393
Avril 2018 25 564 5 104 159849
Mars 2018 20 634 4 96 152933
Février 2018 25 631 7 93 121912
Janvier 2018 26 573 6 94 161457
* 2017 346 6100 56 180 1675168
Décembre 2017 37 499 6 91 136063
2017-12-01 1 27 0 85 5032
2017-12-02 1 21 0 81 4462
2017-12-03 0 17 0 91 4582
2017-12-04 0 10 0 90 4385
2017-12-05 0 13 0 80 3786
2017-12-06 0 15 0 79 3217
2017-12-07 1 13 1 73 4202
2017-12-08 0 5 0 71 4487
2017-12-09 1 1 1 75 4265
2017-12-10 2 15 1 80 5206
2017-12-11 2 21 0 73 4933
2017-12-12 3 44 0 71 5142
2017-12-13 2 19 0 75 4201
2017-12-14 0 16 0 78 4162
2017-12-15 3 15 1 73 4050
2017-12-16 1 23 0 73 4372
2017-12-17 6 30 0 78 4718
2017-12-18 2 22 0 73 4383
2017-12-19 1 12 0 75 3880
2017-12-20 1 18 0 75 4061
2017-12-21 0 6 0 80 4040
2017-12-22 0 8 0 78 5188
2017-12-23 1 10 0 72 4724
2017-12-24 1 4 0 75 4594
2017-12-25 1 9 0 75 4387
2017-12-26 0 9 2 84 4348
2017-12-27 1 26 0 75 4354
2017-12-28 4 31 0 89 4670
2017-12-29 0 19 0 82 4453
2017-12-30 1 13 0 79 3800
2017-12-31 1 7 0 75 3979
Novembre 2017 37 675 6 93 169670
2017-11-01 3 9 0 77 4022
2017-11-02 0 22 0 71 4259
2017-11-03 0 11 0 82 4272
2017-11-04 0 3 0 76 3820
2017-11-05 3 29 2 77 4573
2017-11-06 6 37 1 81 5440
2017-11-07 0 24 0 74 2841
2017-11-08 1 34 1 83 6609
2017-11-09 0 19 0 79 3795
2017-11-10 1 17 0 77 5155
2017-11-11 2 32 0 75 4737
2017-11-12 4 45 0 77 4783
2017-11-13 1 20 1 77 4342
2017-11-14 0 9 0 80 4249
2017-11-15 0 14 0 77 3973
2017-11-16 0 24 0 73 4676
2017-11-17 1 21 0 75 4258
2017-11-18 5 27 0 69 3974
2017-11-19 0 24 0 79 4936
2017-11-20 1 23 0 87 4575
2017-11-21 0 5 0 83 5092
2017-11-22 1 16 1 92 3731
2017-11-23 2 24 0 86 5187
2017-11-24 0 33 0 81 5193
2017-11-25 0 13 0 79 4469
2017-11-26 1 16 0 83 4212
2017-11-27 2 54 0 80 4643
2017-11-28 2 14 0 93 13745
2017-11-29 1 23 0 89 28566
2017-11-30 0 33 0 93 5543
Octobre 2017 15 426 2 93 151449
Septembre 2017 28 548 5 94 135543
Août 2017 29 384 6 99 148097
Juillet 2017 25 490 5 87 176472
Juin 2017 33 603 4 89 156248
Mai 2017 26 470 2 99 181189
Avril 2017 31 490 5 180 139896
Mars 2017 27 432 3 119 90981
Février 2017 31 587 7 87 74924
2017-02-01 1 14 0 55 2090
2017-02-02 0 10 0 26 2549
2017-02-03 2 38 0 74 3460
2017-02-04 0 3 0 75 4033
2017-02-05 4 34 1 66 4596
2017-02-06 3 76 1 73 4948
2017-02-07 1 30 0 76 4581
2017-02-08 0 19 0 77 4379
2017-02-09 1 26 2 70 4735
2017-02-10 1 27 0 70 3647
2017-02-11 0 10 0 87 3878
2017-02-12 2 13 0 82 3838
2017-02-13 2 70 0 81 4357
2017-02-14 4 31 0 16 1711
2017-02-15 2 25 0 24 3776
2017-02-16 2 20 1 16 3155
2017-02-17 0 15 0 17 2432
2017-02-18 1 10 0 16 1365
2017-02-19 0 13 1 15 1380
2017-02-20 1 27 1 25 1662
2017-02-21 2 8 0 17 1136
2017-02-22 1 12 0 19 946
2017-02-23 0 20 0 25 1535
2017-02-24 1 10 0 17 879
2017-02-25 0 8 0 20 940
2017-02-26 0 10 0 18 1219
2017-02-27 0 5 0 15 954
2017-02-28 0 3 0 13 743
Janvier 2017 27 496 5 80 114636
* 2016 389 7721 79 245 2075605
Décembre 2016 34 533 2 170 118206
Novembre 2016 34 586 6 245 122991
Octobre 2016 43 726 7 191 160217
Septembre 2016 26 657 9 85 157449
Août 2016 31 721 9 114 169873
Juillet 2016 19 513 3 58 166690
2016-07-01 0 12 0 45 7913
2016-07-02 1 14 0 53 5460
2016-07-03 0 12 0 43 5640
2016-07-04 0 21 0 51 5125
2016-07-05 0 19 0 53 19299
2016-07-06 1 26 0 47 4798
2016-07-07 1 14 1 45 5226
2016-07-08 0 17 0 29 4376
2016-07-09 2 9 1 33 3581
2016-07-10 0 17 0 30 3953
2016-07-11 0 19 0 33 3994
2016-07-12 0 6 0 34 4003
2016-07-13 0 6 0 29 3703
2016-07-14 0 9 0 36 3393
2016-07-15 0 12 0 46 3985
2016-07-16 0 8 0 49 3862
2016-07-17 1 15 0 46 6224
2016-07-18 3 49 0 48 9490
2016-07-19 5 19 0 58 12133
2016-07-20 1 27 0 53 6421
2016-07-21 0 15 0 44 4051
2016-07-22 1 24 0 35 2980
2016-07-23 0 9 0 46 2786
2016-07-24 0 5 0 50 3313
2016-07-25 0 18 0 48 3778
2016-07-26 1 16 0 49 3234
2016-07-27 1 13 1 45 3378
2016-07-28 0 28 0 42 4140
2016-07-29 0 14 0 54 4296
2016-07-30 0 16 0 49 6668
2016-07-31 1 24 0 56 5487
Juin 2016 30 565 5 53 211715
Mai 2016 40 1116 8 94 166514
Avril 2016 27 529 7 65 155208
Mars 2016 35 513 11 88 224056
Février 2016 35 640 4 96 192454
2016-02-01 1 22 0 74 8459
2016-02-02 0 20 0 87 6602
2016-02-03 2 37 0 76 17946
2016-02-04 0 19 0 64 5160
2016-02-05 1 28 0 73 4553
2016-02-06 2 27 0 78 4715
2016-02-07 4 24 0 69 4878
2016-02-08 0 21 0 22 2514
2016-02-09 0 10 0 72 6304
2016-02-10 1 10 0 90 4785
2016-02-11 1 27 0 77 5427
2016-02-12 0 34 0 82 5486
2016-02-13 1 28 1 77 6932
2016-02-14 1 24 0 82 7091
2016-02-15 3 42 1 81 5791
2016-02-16 1 25 1 75 6305
2016-02-17 2 35 0 95 5664
2016-02-18 2 36 0 76 5744
2016-02-19 1 24 0 76 5288
2016-02-20 4 21 0 96 5390
2016-02-21 2 14 1 70 5007
2016-02-22 1 24 0 84 5259
2016-02-23 2 21 0 78 6312
2016-02-24 0 11 0 80 7832
2016-02-25 1 5 0 79 5226
2016-02-26 0 10 0 70 5018
2016-02-27 2 21 0 75 5289
2016-02-28 0 9 0 83 12718
2016-02-29 0 11 0 72 14759
Janvier 2016 35 622 8 95 230232
2016-01-01 1 38 0 74 6938
2016-01-02 5 14 0 62 4266
2016-01-03 1 10 0 73 4160
2016-01-04 1 17 1 74 5076
2016-01-05 2 22 0 81 6676
2016-01-06 0 16 1 73 2487
2016-01-07 2 18 1 73 16041
2016-01-08 1 18 1 68 8960
2016-01-09 0 15 0 83 5138
2016-01-10 2 38 0 80 5949
2016-01-11 2 44 0 77 6900
2016-01-12 0 18 0 77 7023
2016-01-13 1 29 1 83 8300
2016-01-14 1 17 0 94 10452
2016-01-15 1 20 0 90 7501
2016-01-16 0 35 0 95 11508
2016-01-17 0 32 0 85 12436
2016-01-18 1 14 0 81 15167
2016-01-19 1 23 0 83 13475
2016-01-20 1 20 0 79 9097
2016-01-21 0 9 0 75 7399
2016-01-22 1 8 0 71 7610
2016-01-23 0 18 0 73 5798
2016-01-24 1 20 0 66 5545
2016-01-25 4 14 0 74 4580
2016-01-26 1 14 0 75 6897
2016-01-27 1 11 1 80 5561
2016-01-28 1 22 0 83 5191
2016-01-29 0 14 0 73 4905
2016-01-30 1 14 1 81 4215
2016-01-31 2 20 1 64 4981
* 2015 373 6684 79 100 1549803
Décembre 2015 28 499 7 68 140303
2015-12-01 0 25 0 16 2350
2015-12-02 0 13 0 16 2355
2015-12-03 1 32 1 21 3677
2015-12-04 0 20 0 17 2064
2015-12-05 0 16 1 21 3894
2015-12-06 0 13 0 20 5745
2015-12-07 0 6 0 35 3625
2015-12-08 1 17 0 32 4443
2015-12-09 0 4 0 35 7622
2015-12-10 1 6 0 32 5400
2015-12-11 0 19 0 35 19913
2015-12-12 1 21 1 25 3299
2015-12-13 7 38 0 30 4377
2015-12-14 0 26 0 27 3642
2015-12-15 2 29 1 32 5486
2015-12-16 4 39 0 37 6111
2015-12-17 0 14 0 18 3269
2015-12-18 0 17 0 13 2944
2015-12-19 1 16 0 18 3387
2015-12-20 0 14 0 17 3339
2015-12-21 0 2 0 14 2174
2015-12-22 0 0 1 21 3147
2015-12-23 2 10 0 14 2552
2015-12-24 1 11 0 43 2912
2015-12-25 2 20 0 13 2346
2015-12-26 0 10 0 12 2235
2015-12-27 1 11 0 10 6406
2015-12-28 3 29 1 65 5360
2015-12-29 0 2 1 53 4266
2015-12-30 1 12 0 68 5376
2015-12-31 0 7 0 57 6587
Novembre 2015 40 724 5 35 146607
Octobre 2015 32 760 10 84 227528
2015-10-01 1 18 0 82 8525
2015-10-02 1 10 0 80 4829
2015-10-03 0 7 0 13 2541
2015-10-04 0 7 0 74 5391
2015-10-05 3 45 2 39 10558
2015-10-06 4 42 1 84 20928
2015-10-07 0 30 0 79 21334
2015-10-08 0 12 0 39 12723
2015-10-09 1 14 2 22 4574
2015-10-10 0 8 0 80 5752
2015-10-11 1 36 0 23 4613
2015-10-12 3 25 0 23 3928
2015-10-13 0 35 0 20 3575
2015-10-14 3 25 0 79 9055
2015-10-15 1 32 0 22 7638
2015-10-16 1 43 0 82 8658
2015-10-17 0 34 0 62 6865
2015-10-18 2 31 0 66 5798
2015-10-19 0 21 0 73 5660
2015-10-20 1 29 0 23 4062
2015-10-21 0 22 0 28 20035
2015-10-22 1 22 1 27 6384
2015-10-23 2 15 0 25 6058
2015-10-24 2 27 2 26 4323
2015-10-25 0 11 0 32 4915
2015-10-26 2 22 0 31 4192
2015-10-27 0 26 1 41 5915
2015-10-28 1 28 0 41 5310
2015-10-29 2 29 0 21 4485
2015-10-30 0 38 0 23 4216
2015-10-31 0 16 1 27 4688
Septembre 2015 40 948 13 100 169012
2015-09-01 3 40 0 23 4812
2015-09-02 0 52 2 72 5791
2015-09-03 0 21 0 16 4722
2015-09-04 2 20 1 67 4506
2015-09-05 2 40 2 79 8360
2015-09-06 1 58 0 21 4206
2015-09-07 0 27 1 17 3924
2015-09-08 6 44 0 100 9516
2015-09-09 1 26 0 74 6952
2015-09-10 0 37 1 73 5976
2015-09-11 0 43 0 80 7212
2015-09-12 0 23 0 81 5584
2015-09-13 0 30 0 74 5189
2015-09-14 1 25 1 19 3457
2015-09-15 2 18 0 20 2649
2015-09-16 1 23 0 62 4565
2015-09-17 0 10 0 59 5055
2015-09-18 0 36 0 72 4251
2015-09-19 1 36 0 73 4774
2015-09-20 1 41 1 69 4977
2015-09-21 1 23 0 75 11093
2015-09-22 6 28 1 22 3585
2015-09-23 0 33 0 65 5593
2015-09-24 1 42 0 71 5489
2015-09-25 3 24 0 17 3955
2015-09-26 2 25 1 77 5774
2015-09-27 3 47 1 88 6711
2015-09-28 2 34 0 79 7065
2015-09-29 0 6 0 27 5105
2015-09-30 1 36 1 85 8164
Août 2015 36 566 12 61 119954
2015-08-01 2 13 0 18 2717
2015-08-02 0 7 0 13 2055
2015-08-03 7 20 2 15 2199
2015-08-04 1 9 0 40 3590
2015-08-05 0 13 0 16 2911
2015-08-06 0 5 0 14 2574
2015-08-07 0 22 0 17 3967
2015-08-08 0 14 0 17 3023
2015-08-09 5 32 1 18 2992
2015-08-10 2 30 1 17 4088
2015-08-11 1 16 1 15 2652
2015-08-12 3 23 0 16 2544
2015-08-13 0 7 0 14 2436
2015-08-14 0 8 0 55 4945
2015-08-15 1 11 0 52 4116
2015-08-16 0 12 0 13 2678
2015-08-17 0 2 0 54 3352
2015-08-18 0 6 0 49 3473
2015-08-19 0 2 0 29 2985
2015-08-20 1 13 1 19 3315
2015-08-21 0 13 0 54 5973
2015-08-22 0 4 0 13 4672
2015-08-23 3 21 1 21 3708
2015-08-24 2 33 2 19 4048
2015-08-25 1 46 1 25 5182
2015-08-26 0 17 0 18 5281
2015-08-27 0 23 0 28 5761
2015-08-28 1 44 1 17 5899
2015-08-29 0 37 0 43 5544
2015-08-30 1 26 1 43 3953
2015-08-31 5 37 0 61 7321
Juillet 2015 29 462 7 31 89666
Juin 2015 24 453 5 30 112317
Mai 2015 30 390 2 24 73874
2015-05-01 0 17 0 15 2030
2015-05-02 1 16 0 16 2557
2015-05-03 1 29 0 18 2371
2015-05-04 2 17 0 21 1947
2015-05-05 0 2 0 16 1636
2015-05-06 0 8 0 15 2047
2015-05-07 0 6 0 14 2022
2015-05-08 0 3 0 15 1847
2015-05-09 0 5 0 18 1813
2015-05-10 2 5 0 13 1887
2015-05-11 0 6 0 14 1631
2015-05-12 2 20 1 13 2423
2015-05-13 0 11 0 13 2977
2015-05-14 0 11 0 24 3549
2015-05-15 2 11 0 18 2773
2015-05-16 1 3 1 15 2585
2015-05-17 0 6 0 12 2212
2015-05-18 4 29 0 14 2715
2015-05-19 0 8 0 15 1683
2015-05-20 0 3 0 12 1911
2015-05-21 1 4 0 13 2338
2015-05-22 1 8 0 12 1807
2015-05-23 1 6 0 15 2186
2015-05-24 2 15 0 19 4554
2015-05-25 1 21 0 24 2499
2015-05-26 2 20 0 18 2489
2015-05-27 0 21 0 17 1695
2015-05-28 3 38 0 14 2854
2015-05-29 4 23 0 15 4584
2015-05-30 0 13 0 16 1591
2015-05-31 0 5 0 11 2661
Avril 2015 29 408 4 25 95371
Mars 2015 38 550 7 37 130116
Février 2015 15 434 2 24 123854
Janvier 2015 32 490 5 44 121201
* 2014 428 7364 58 58 2478164
Décembre 2014 24 360 4 33 191610
Novembre 2014 37 572 7 46 525858
Octobre 2014 45 928 8 58 364915
Septembre 2014 24 549 8 32 162413
Août 2014 17 251 4 27 191624
Juillet 2014 25 369 3 30 236312
2014-07-01 1 10 0 19 5255
2014-07-02 2 27 0 18 5751
2014-07-03 1 33 0 28 6315
2014-07-04 1 28 1 30 9465
2014-07-05 0 18 0 28 10029
2014-07-06 0 9 0 22 8518
2014-07-07 2 9 0 26 4726
2014-07-08 1 9 1 20 6102
2014-07-09 1 7 0 20 6697
2014-07-10 0 5 0 22 5937
2014-07-11 0 12 0 13 5141
2014-07-12 0 8 0 23 8506
2014-07-13 1 7 0 19 9921
2014-07-14 1 16 0 12 5280
2014-07-15 4 12 0 13 3488
2014-07-16 1 7 0 28 10016
2014-07-17 0 9 0 24 16100
2014-07-18 0 11 0 23 16608
2014-07-19 1 7 0 18 16697
2014-07-20 1 7 0 20 4967
2014-07-21 0 1 0 26 6993
2014-07-22 1 11 0 21 8213
2014-07-23 0 13 0 23 8227
2014-07-24 0 1 0 23 8500
2014-07-25 1 8 0 21 8352
2014-07-26 0 4 0 21 6351
2014-07-27 1 22 1 11 2847
2014-07-28 2 21 0 17 4541
2014-07-29 0 7 0 16 6234
2014-07-30 0 17 0 18 5977
2014-07-31 2 13 0 15 4558
Juin 2014 29 602 3 32 220918
2014-06-01 1 5 0 24 6791
2014-06-02 1 10 0 20 3083
2014-06-03 1 21 0 28 5918
2014-06-04 0 9 0 24 7578
2014-06-05 2 32 0 23 6468
2014-06-06 0 15 0 27 5750
2014-06-07 1 20 0 27 6064
2014-06-08 0 16 0 25 5982
2014-06-09 0 15 0 31 5881
2014-06-10 1 15 0 27 6293
2014-06-11 1 26 0 32 9966
2014-06-12 1 15 0 24 9897
2014-06-13 1 18 0 29 6454
2014-06-14 3 16 1 18 6297
2014-06-15 0 27 0 28 10859
2014-06-16 1 25 0 27 11904
2014-06-17 1 24 0 27 7926
2014-06-18 1 36 0 25 7600
2014-06-19 0 16 0 25 7850
2014-06-20 0 21 1 17 5649
2014-06-21 1 24 0 16 7833
2014-06-22 1 12 1 19 11161
2014-06-23 4 41 0 25 12869
2014-06-24 2 29 0 20 12603
2014-06-25 1 27 0 20 6974
2014-06-26 2 21 0 20 4216
2014-06-27 1 17 0 20 5405
2014-06-28 0 12 0 15 4740
2014-06-29 0 20 0 16 4717
2014-06-30 1 17 0 18 6190
Mai 2014 34 842 6 29 157174
Avril 2014 45 662 1 25 104486
Mars 2014 32 595 4 26 120439
Février 2014 24 660 5 28 102996
Janvier 2014 92 974 5 33 99419
* 2013 408 8887 76 89 1597727
Décembre 2013 36 785 2 79 132305
Novembre 2013 36 751 8 29 141119
Octobre 2013 37 683 10 26 116570
Septembre 2013 33 723 15 29 160779
Août 2013 20 356 4 30 113960
2013-08-01 0 1 0 17 6165
2013-08-02 2 10 1 30 3363
2013-08-03 0 4 0 18 3801
2013-08-04 1 6 0 15 4126
2013-08-05 2 13 0 22 3858
2013-08-06 0 8 0 17 5385
2013-08-07 0 5 0 17 3665
2013-08-08 0 10 0 18 3057
2013-08-09 0 6 0 18 4374
2013-08-10 1 2 0 16 4563
2013-08-11 0 9 0 17 4114
2013-08-12 0 1 0 20 4489
2013-08-13 1 17 0 19 4829
2013-08-14 0 7 0 15 2333
2013-08-15 0 2 0 14 2977
2013-08-16 0 1 0 15 4833
2013-08-17 0 2 0 13 3056
2013-08-18 0 7 0 13 2784
2013-08-19 1 3 0 12 3124
2013-08-20 1 8 0 13 2097
2013-08-21 0 10 0 14 2180
2013-08-22 0 9 0 15 2515
2013-08-23 0 13 1 23 3032
2013-08-24 2 21 0 14 2563
2013-08-25 1 8 0 14 2604
2013-08-26 1 13 0 14 1978
2013-08-27 1 22 0 18 2519
2013-08-28 0 30 0 14 3594
2013-08-29 0 26 1 17 2491
2013-08-30 2 41 1 20 8436
2013-08-31 4 41 0 22 5055
Juillet 2013 21 331 2 24 120164
Juin 2013 40 731 5 34 119512
Mai 2013 34 881 3 47 157484
2013-05-01 0 15 0 18 4248
2013-05-02 0 9 0 19 6085
2013-05-03 0 16 0 17 4788
2013-05-04 2 16 0 20 4230
2013-05-05 2 34 0 24 4982
2013-05-06 2 53 0 21 4256
2013-05-07 0 38 0 21 4459
2013-05-08 3 29 0 21 4111
2013-05-09 0 36 0 31 5286
2013-05-10 0 28 0 47 6457
2013-05-11 2 28 0 18 5554
2013-05-12 1 35 0 17 4775
2013-05-13 2 40 0 19 8701
2013-05-14 2 34 0 19 5271
2013-05-15 2 34 0 18 4752
2013-05-16 0 40 0 20 6246
2013-05-17 1 24 1 20 5171
2013-05-18 2 12 0 18 5484
2013-05-19 1 36 0 22 3824
2013-05-20 0 9 0 20 5481
2013-05-21 0 4 0 17 6094
2013-05-22 1 21 0 17 4610
2013-05-23 1 14 0 18 5776
2013-05-24 0 22 0 18 5736
2013-05-25 0 8 0 17 3869
2013-05-26 1 32 0 20 4951
2013-05-27 3 26 0 18 5140
2013-05-28 0 33 0 21 3623
2013-05-29 1 34 0 18 3927
2013-05-30 4 51 2 18 4466
2013-05-31 1 70 0 20 5131
Avril 2013 38 799 8 33 124279
Mars 2013 40 1111 9 62 147762
Février 2013 32 838 5 79 125299
Janvier 2013 41 898 5 89 138494
* 2012 446 10690 67 157 1274957
Décembre 2012 57 1411 4 45 150137
Novembre 2012 46 1137 8 25 112399
Octobre 2012 45 1068 7 25 80970
Septembre 2012 37 876 11 38 107023
2012-09-01 0 8 1 16 2575
2012-09-02 5 43 0 17 3826
2012-09-03 2 46 0 23 3659
2012-09-04 1 28 1 17 3491
2012-09-05 1 45 0 20 3793
2012-09-06 1 48 0 15 3882
2012-09-07 0 23 0 17 3089
2012-09-08 2 35 0 34 3530
2012-09-09 2 20 1 15 3371
2012-09-10 4 46 1 27 3558
2012-09-11 3 41 1 15 3139
2012-09-12 1 57 0 35 4503
2012-09-13 0 15 0 38 4800
2012-09-14 0 18 0 19 3751
2012-09-15 0 4 0 25 3135
2012-09-16 2 31 0 21 3471
2012-09-17 1 51 0 20 3662
2012-09-18 1 37 2 21 3924
2012-09-19 0 20 0 22 4623
2012-09-20 0 24 1 20 4039
2012-09-21 1 31 1 23 4071
2012-09-22 0 14 0 23 3551
2012-09-23 1 14 0 21 3462
2012-09-24 2 48 1 22 4769
2012-09-25 4 39 1 23 3691
2012-09-26 0 22 0 20 3237
2012-09-27 0 21 0 25 3229
2012-09-28 0 13 0 16 2068
2012-09-29 2 16 0 15 1970
2012-09-30 1 18 0 14 3154
Août 2012 30 595 5 41 95032
2012-08-01 1 10 0 13 3408
2012-08-02 0 21 0 19 2532
2012-08-03 0 19 0 15 2650
2012-08-04 0 3 0 14 1909
2012-08-05 0 5 0 12 1913
2012-08-06 1 18 1 15 2288
2012-08-07 0 13 0 15 2613
2012-08-08 2 12 0 13 3743
2012-08-09 1 27 0 14 3247
2012-08-10 0 14 0 41 3163
2012-08-11 2 20 1 20 2655
2012-08-12 0 22 0 13 2610
2012-08-13 2 54 1 18 3586
2012-08-14 1 22 0 15 3230
2012-08-15 1 15 0 15 2618
2012-08-16 3 23 0 14 3024
2012-08-17 0 7 0 19 3643
2012-08-18 0 4 0 14 2628
2012-08-19 3 17 0 16 3017
2012-08-20 2 20 0 14 3296
2012-08-21 0 12 1 16 3643
2012-08-22 2 14 0 18 3501
2012-08-23 0 26 0 17 3497
2012-08-24 0 14 0 15 3563
2012-08-25 0 23 0 16 3262
2012-08-26 2 15 0 14 3447
2012-08-27 1 23 0 13 3342
2012-08-28 1 4 0 17 2817
2012-08-29 2 22 0 20 3476
2012-08-30 2 67 1 18 3756
2012-08-31 1 29 0 29 2955
Juillet 2012 24 563 2 157 78638
2012-07-01 2 33 0 20 3383
2012-07-02 0 39 0 16 3176
2012-07-03 1 42 0 21 2769
2012-07-04 0 21 0 18 2427
2012-07-05 0 28 0 19 2191
2012-07-06 0 29 0 15 2402
2012-07-07 2 10 0 25 4165
2012-07-08 0 13 1 17 1741
2012-07-09 2 18 0 14 3585
2012-07-10 2 24 0 14 2317
2012-07-11 0 39 0 22 3204
2012-07-12 0 32 0 14 1963
2012-07-13 1 28 0 16 1977
2012-07-14 0 17 0 16 1834
2012-07-15 3 22 0 30 3446
2012-07-16 1 11 0 26 3044
2012-07-17 0 5 0 13 1616
2012-07-18 2 14 0 15 1754
2012-07-19 0 21 0 13 2427
2012-07-20 0 15 0 18 1824
2012-07-21 0 10 0 10 1292
2012-07-22 0 6 0 18 1434
2012-07-23 1 7 0 17 1873
2012-07-24 2 8 0 157 7112
2012-07-25 2 13 1 13 1667
2012-07-26 1 6 0 14 1478
2012-07-27 1 14 0 16 2610
2012-07-28 0 6 0 17 2026
2012-07-29 0 11 0 16 2266
2012-07-30 1 11 0 15 2745
2012-07-31 0 10 0 17 2890
Juin 2012 39 984 10 33 88620
2012-06-01 0 22 0 22 2768
2012-06-02 2 19 0 16 2287
2012-06-03 2 49 1 20 2991
2012-06-04 1 20 0 18 2557
2012-06-05 0 18 0 25 2088
2012-06-06 2 20 0 16 2460
2012-06-07 1 31 1 22 3106
2012-06-08 1 47 1 18 3140
2012-06-09 2 34 1 21 2277
2012-06-10 0 50 1 18 3163
2012-06-11 3 54 0 16 2912
2012-06-12 4 24 1 19 2270
2012-06-13 3 26 0 33 2675
2012-06-14 0 21 1 14 2735
2012-06-15 0 14 0 16 2910
2012-06-16 0 14 0 16 2617
2012-06-17 1 12 0 16 3557
2012-06-18 1 55 1 23 4850
2012-06-19 2 39 0 20 3959
2012-06-20 2 37 1 21 4389
2012-06-21 1 26 0 21 3322
2012-06-22 0 24 0 17 2839
2012-06-23 1 35 0 15 2885
2012-06-24 0 32 0 17 2599
2012-06-25 1 51 0 20 3408
2012-06-26 2 49 0 18 2936
2012-06-27 3 22 1 23 2275
2012-06-28 1 76 0 22 3034
2012-06-29 1 32 0 18 2424
2012-06-30 2 31 0 17 3187
Mai 2012 22 703 5 26 77701
2012-05-01 2 31 0 24 2676
2012-05-02 2 37 0 16 2377
2012-05-03 1 28 0 17 2595
2012-05-04 0 32 0 17 2833
2012-05-05 2 29 1 21 2604
2012-05-06 0 26 0 19 3019
2012-05-07 1 23 0 15 2984
2012-05-08 1 21 0 15 2018
2012-05-09 0 22 0 15 1937
2012-05-10 3 29 1 26 2194
2012-05-11 1 18 0 17 2614
2012-05-12 0 25 0 18 2467
2012-05-13 1 21 0 15 1929
2012-05-14 0 19 0 15 2270
2012-05-15 0 20 0 13 2021
2012-05-16 2 19 1 20 1978
2012-05-17 0 28 0 17 2478
2012-05-18 1 11 0 13 2280
2012-05-19 0 14 0 17 2552
2012-05-20 0 12 0 20 2256
2012-05-21 0 14 0 20 3771
2012-05-22 1 14 0 17 1888
2012-05-23 2 32 1 14 2221
2012-05-24 0 39 1 16 2279
2012-05-25 0 20 0 13 2197
2012-05-26 0 11 0 12 2044
2012-05-27 0 17 0 16 2881
2012-05-28 0 19 0 13 2192
2012-05-29 2 26 0 19 2789
2012-05-30 0 14 0 19 4625
2012-05-31 0 32 0 17 2732
Avril 2012 33 714 4 33 95151
Mars 2012 35 977 5 48 160160
Février 2012 34 704 5 33 117877
Janvier 2012 44 958 1 30 111249
* 2011 822 21877 118 48 1861895
Décembre 2011 68 1315 7 36 141929
Novembre 2011 94 1539 4 36 150015
Octobre 2011 81 1597 13 41 169207
Septembre 2011 96 1991 19 24 158540
Août 2011 68 1372 16 48 135201
2011-08-01 1 53 3 16 3486
2011-08-02 2 33 2 18 3048
2011-08-03 0 24 0 18 2915
2011-08-04 3 25 0 16 2649
2011-08-05 2 35 0 20 3005
2011-08-06 0 17 0 15 2618
2011-08-07 2 23 0 12 3445
2011-08-08 2 63 0 15 3465
2011-08-09 1 29 0 21 2868
2011-08-10 1 35 0 22 2729
2011-08-11 2 42 0 17 2980
2011-08-12 1 57 0 21 3655
2011-08-13 1 15 0 12 1914
2011-08-14 3 11 0 16 2022
2011-08-15 3 26 0 18 3670
2011-08-16 2 32 0 11 9114
2011-08-17 6 40 0 18 8629
2011-08-18 4 50 0 29 6811
2011-08-19 1 27 0 14 4955
2011-08-20 0 16 0 13 2768
2011-08-21 1 20 2 16 2731
2011-08-22 2 76 1 15 4951
2011-08-23 1 73 1 20 7172
2011-08-24 1 36 1 23 5952
2011-08-25 6 106 1 16 7246
2011-08-26 5 112 2 23 8570
2011-08-27 2 52 0 19 5138
2011-08-28 4 46 1 13 3457
2011-08-29 3 83 0 18 4851
2011-08-30 1 48 1 18 4507
2011-08-31 5 67 1 48 3880
Juillet 2011 57 1156 10 30 112626
Juin 2011 40 1214 6 31 149115
Mai 2011 64 1997 8 39 181997
2011-05-01 1 44 0 21 3800
2011-05-02 2 97 0 21 4247
2011-05-03 2 60 0 15 3949
2011-05-04 2 57 0 22 4174
2011-05-05 2 87 0 29 4101
2011-05-06 1 46 0 19 3293
2011-05-07 3 21 0 31 5860
2011-05-08 1 13 1 29 6061
2011-05-09 2 62 1 26 7057
2011-05-10 3 117 1 32 13635
2011-05-11 0 70 0 33 8213
2011-05-12 4 99 0 39 6910
2011-05-13 3 60 0 27 5773
2011-05-14 3 45 1 23 4456
2011-05-15 1 55 0 26 5530
2011-05-16 1 73 0 34 6924
2011-05-17 0 96 0 25 5617
2011-05-18 4 144 0 29 7640
2011-05-19 2 91 0 34 8906
2011-05-20 1 45 0 28 5778
2011-05-21 0 21 0 38 5753
2011-05-22 1 55 0 29 6481
2011-05-23 7 130 0 23 10799
2011-05-24 1 41 0 28 4569
2011-05-25 3 51 0 34 6528
2011-05-26 0 71 2 24 4490
2011-05-27 1 49 1 18 3249
2011-05-28 0 36 0 14 2868
2011-05-29 7 31 0 23 4945
2011-05-30 3 76 0 28 5514
2011-05-31 3 54 1 25 4877
Avril 2011 46 1637 9 38 176986
Mars 2011 54 2388 6 31 211307
Février 2011 59 2656 5 46 128248
Janvier 2011 95 3015 15 44 146724
* 2010 615 23079 70 91 1409620
Décembre 2010 54 2635 5 43 199984
Novembre 2010 59 2475 6 49 127779
Octobre 2010 56 2811 15 58 134942
Septembre 2010 53 1528 8 29 95249
2010-09-01 2 64 1 15 3537
2010-09-02 2 76 0 14 3989
2010-09-03 3 85 0 19 3885
2010-09-04 1 38 0 20 3616
2010-09-05 1 48 0 26 5204
2010-09-06 1 76 0 24 4914
2010-09-07 0 30 0 17 2733
2010-09-08 4 80 1 15 3386
2010-09-09 7 72 0 17 2897
2010-09-10 1 40 0 21 3001
2010-09-11 1 30 1 19 2447
2010-09-12 1 38 0 14 2426
2010-09-13 1 35 1 17 3257
2010-09-14 2 49 0 15 2984
2010-09-15 1 33 0 19 2355
2010-09-16 0 16 0 15 2237
2010-09-17 2 27 0 14 2374
2010-09-18 0 12 0 11 2345
2010-09-19 1 18 0 17 2430
2010-09-20 6 97 0 20 3524
2010-09-21 4 72 2 19 3395
2010-09-22 3 66 0 29 3745
2010-09-23 1 45 0 17 3086
2010-09-24 0 27 0 11 2457
2010-09-25 3 45 0 17 2727
2010-09-26 1 68 0 22 3215
2010-09-27 0 62 1 15 2961
2010-09-28 3 71 0 17 3530
2010-09-29 1 56 1 21 4026
2010-09-30 0 52 0 12 2566
Août 2010 32 1287 6 33 89617
Juillet 2010 34 1637 5 32 97290
Juin 2010 46 2137 3 28 109648
Mai 2010 50 1497 6 28 99050
Avril 2010 45 1888 3 26 102219
Mars 2010 53 1534 2 46 118201
Février 2010 65 1574 4 91 117274
2010-02-01 0 89 0 38 4425
2010-02-02 2 76 0 35 3733
2010-02-03 4 114 1 16 4361
2010-02-04 0 62 0 42 4425
2010-02-05 2 55 0 36 3911
2010-02-06 1 39 0 14 3117
2010-02-07 3 40 0 27 3953
2010-02-08 2 89 0 35 4078
2010-02-09 5 79 0 28 4799
2010-02-10 4 55 1 27 4888
2010-02-11 2 88 0 23 4506
2010-02-12 4 56 0 26 4178
2010-02-13 1 31 0 27 4062
2010-02-14 1 36 0 30 4023
2010-02-15 2 34 0 23 3907
2010-02-16 4 76 1 18 4688
2010-02-17 1 17 0 31 3201
2010-02-18 5 61 1 26 4183
2010-02-19 4 59 0 36 4081
2010-02-20 1 40 0 24 3219
2010-02-21 1 21 0 15 2977
2010-02-22 1 54 0 28 3653
2010-02-23 1 57 0 23 4114
2010-02-24 4 87 0 24 4415
2010-02-25 2 44 0 19 4413
2010-02-26 3 57 0 49 4280
2010-02-27 2 41 0 91 8619
2010-02-28 3 17 0 36 3065
Janvier 2010 68 2076 7 43 118367
2010-01-01 1 46 0 20 3913
2010-01-02 4 31 1 32 3858
2010-01-03 2 36 0 28 3215
2010-01-04 4 63 0 32 3563
2010-01-05 6 83 1 14 3833
2010-01-06 1 75 0 29 4333
2010-01-07 1 69 0 28 3556
2010-01-08 3 91 0 31 3667
2010-01-09 2 63 0 16 6182
2010-01-10 3 84 0 26 5259
2010-01-11 0 69 0 34 3960
2010-01-12 2 49 1 38 3467
2010-01-13 3 71 0 43 3364
2010-01-14 6 94 0 22 3885
2010-01-15 1 39 0 35 3006
2010-01-16 4 72 0 29 3257
2010-01-17 3 64 0 21 3633
2010-01-18 1 108 1 25 4914
2010-01-19 0 43 0 32 4202
2010-01-20 2 67 0 41 4556
2010-01-21 1 91 1 31 3743
2010-01-22 2 86 0 34 3744
2010-01-23 2 36 1 19 2584
2010-01-24 0 37 0 21 3027
2010-01-25 2 126 1 37 4743
2010-01-26 2 71 0 34 3580
2010-01-27 1 58 0 20 3145
2010-01-28 1 65 0 13 3955
2010-01-29 3 81 0 17 3847
2010-01-30 2 48 0 14 2989
2010-01-31 3 60 0 14 3387
* 2009 752 28223 96 159 970278
Décembre 2009 39 2001 5 54 122418
Novembre 2009 59 3138 6 38 117432
Octobre 2009 67 3218 11 18 122232
2009-10-01 0 76 0 11 2516
2009-10-02 1 64 0 10 2579
2009-10-03 2 101 0 11 2851
2009-10-04 1 126 0 12 3520
2009-10-05 4 87 0 15 3448
2009-10-06 5 84 0 13 3357
2009-10-07 3 120 1 11 3765
2009-10-08 3 194 0 14 4579
2009-10-09 0 85 0 11 2918
2009-10-10 3 88 1 11 2279
2009-10-11 4 158 1 12 4547
2009-10-12 3 160 0 13 4399
2009-10-13 4 115 1 16 3779
2009-10-14 1 84 0 13 3531
2009-10-15 0 71 0 14 3213
2009-10-16 0 67 0 17 11597
2009-10-17 1 50 0 17 3148
2009-10-18 0 67 1 16 4508
2009-10-19 4 165 1 18 5455
2009-10-20 0 85 0 14 3066
2009-10-21 3 105 1 12 4822
2009-10-22 2 99 1 13 3611
2009-10-23 2 108 0 15 3666
2009-10-24 1 67 1 12 2884
2009-10-25 1 79 0 15 3733
2009-10-26 3 100 1 13 3989
2009-10-27 5 143 0 15 4733
2009-10-28 0 60 1 12 2921
2009-10-29 1 120 0 14 3964
2009-10-30 4 193 0 17 4507
2009-10-31 6 97 0 15 4347
Septembre 2009 73 2730 14 159 92082
Août 2009 47 1405 8 15 61919
Juillet 2009 68 1737 11 21 67267
Juin 2009 63 2759 4 37 72789
Mai 2009 46 2166 6 16 66386
2009-05-01 1 129 0 10 2835
2009-05-02 1 42 1 14 1469
2009-05-03 0 68 0 13 1801
2009-05-04 3 101 1 16 2844
2009-05-05 2 74 1 13 2433
2009-05-06 4 156 0 15 3705
2009-05-07 1 47 0 12 1946
2009-05-08 1 54 1 9 1538
2009-05-09 2 46 0 10 1306
2009-05-10 2 58 0 12 1788
2009-05-11 0 77 0 13 2263
2009-05-12 1 49 1 11 2134
2009-05-13 0 31 0 11 1993
2009-05-14 0 65 0 12 2003
2009-05-15 0 75 0 11 2324
2009-05-16 2 36 0 8 1545
2009-05-17 1 52 1 13 2284
2009-05-18 0 40 0 11 2729
2009-05-19 1 60 0 11 2402
2009-05-20 0 90 0 10 2220
2009-05-21 5 54 0 10 1843
2009-05-22 0 36 0 10 1520
2009-05-23 0 38 0 8 1804
2009-05-24 5 74 0 10 2169
2009-05-25 6 80 0 13 2515
2009-05-26 1 105 0 13 2637
2009-05-27 4 128 0 14 3088
2009-05-28 0 85 0 9 1806
2009-05-29 0 82 0 11 2137
2009-05-30 0 48 0 8 1394
2009-05-31 3 86 0 13 1911
Avril 2009 101 2850 6 16 73303
Mars 2009 80 3538 7 17 83610
Février 2009 57 1586 6 16 50521
2009-02-01 3 79 0 10 1938
2009-02-02 2 66 0 11 2491
2009-02-03 2 62 1 13 2112
2009-02-04 2 48 0 12 1911
2009-02-05 1 54 0 10 1840
2009-02-06 0 42 1 9 1456
2009-02-07 1 13 0 6 1032
2009-02-08 5 69 1 9 1650
2009-02-09 3 48 0 10 1590
2009-02-10 2 56 0 8 1453
2009-02-11 1 38 1 9 1697
2009-02-12 2 30 0 8 1354
2009-02-13 3 52 1 12 1429
2009-02-14 1 29 0 11 988
2009-02-15 2 41 0 8 1595
2009-02-16 2 62 0 10 2271
2009-02-17 1 44 0 10 1926
2009-02-18 1 62 0 10 2139
2009-02-19 5 89 0 12 2304
2009-02-20 1 66 0 12 2066
2009-02-21 0 41 0 9 1177
2009-02-22 6 58 0 11 1838
2009-02-23 2 67 0 10 1907
2009-02-24 1 64 0 12 2219
2009-02-25 1 85 0 16 2446
2009-02-26 2 76 0 12 2117
2009-02-27 1 82 0 11 2035
2009-02-28 4 63 1 10 1540
Janvier 2009 52 1095 12 10 40319
2009-01-01 2 21 0 5 768
2009-01-02 5 32 2 7 1486
2009-01-03 1 17 0 6 910
2009-01-04 0 22 0 9 1555
2009-01-05 0 28 0 7 972
2009-01-06 1 17 1 7 734
2009-01-07 4 49 0 7 1072
2009-01-08 1 33 0 8 1218
2009-01-09 1 36 0 7 1148
2009-01-10 1 19 0 9 1249
2009-01-11 2 35 0 8 1138
2009-01-12 1 21 2 8 1085
2009-01-13 1 22 0 9 926
2009-01-14 1 38 1 6 1577
2009-01-15 2 24 0 6 1142
2009-01-16 1 22 0 9 1101
2009-01-17 1 19 0 6 937
2009-01-18 1 19 0 8 1091
2009-01-19 0 8 1 7 864
2009-01-20 2 22 1 10 1014
2009-01-21 3 89 0 10 2235
2009-01-22 0 50 0 8 1433
2009-01-23 0 34 0 8 1281
2009-01-24 2 18 0 7 902
2009-01-25 5 71 2 9 2028
2009-01-26 1 85 0 10 2278
2009-01-27 4 48 1 8 1679
2009-01-28 3 72 0 8 1963
2009-01-29 3 63 0 8 1669
2009-01-30 1 38 0 9 1324
2009-01-31 2 23 1 9 1540
* 2008 334 4655 56 26 234055
Décembre 2008 36 663 7 12 28104
Novembre 2008 51 1090 9 10 35948
Octobre 2008 50 609 5 10 26582
Septembre 2008 40 619 5 10 24365
2008-09-01 0 6 0 7 539
2008-09-02 2 16 0 0 576
2008-09-03 1 13 0 5 857
2008-09-04 1 9 0 6 627
2008-09-05 1 15 0 7 829
2008-09-06 1 7 0 6 671
2008-09-07 1 17 0 4 1181
2008-09-08 5 29 0 6 1459
2008-09-09 0 2 0 5 741
2008-09-10 1 9 0 5 540
2008-09-11 0 7 0 6 574
2008-09-12 2 27 0 7 779
2008-09-13 0 11 0 6 602
2008-09-14 0 5 0 6 478
2008-09-15 6 28 1 6 990
2008-09-16 1 15 0 6 639
2008-09-17 0 26 1 7 1061
2008-09-18 1 14 0 6 720
2008-09-19 1 16 0 6 620
2008-09-20 0 9 0 5 403
2008-09-21 2 17 2 6 630
2008-09-22 0 32 0 7 887
2008-09-23 1 22 0 10 697
2008-09-24 3 54 0 10 1244
2008-09-25 3 27 0 7 873
2008-09-26 1 23 0 6 770
2008-09-27 0 21 0 8 670
2008-09-28 2 35 0 7 911
2008-09-29 2 57 0 6 1560
2008-09-30 2 50 1 9 1237
Août 2008 28 252 6 9 21916
Juillet 2008 20 256 5 7 16733
Juin 2008 17 363 6 26 18903
Mai 2008 17 180 2 10 13320
Avril 2008 16 146 3 8 16063
Mars 2008 18 158 1 9 12835
Février 2008 19 155 2 9 9679
Janvier 2008 22 164 5 7 9607
* 2007 276 2246 55 9 102999
Décembre 2007 21 167 5 8 17081
2007-12-01 0 1 0 4 239
2007-12-02 0 2 0 4 264
2007-12-03 1 5 0 4 262
2007-12-04 0 1 0 4 266
2007-12-05 0 0 0 3 201
2007-12-06 0 2 0 4 226
2007-12-07 0 12 0 0 371
2007-12-08 1 3 0 4 451
2007-12-09 2 8 0 4 2230
2007-12-10 2 13 1 5 405
2007-12-11 0 5 1 4 312
2007-12-12 1 10 0 4 317
2007-12-13 0 2 0 0 258
2007-12-14 1 7 0 4 254
2007-12-15 2 6 0 3 303
2007-12-16 0 4 0 3 248
2007-12-17 1 6 0 4 267
2007-12-18 0 1 0 0 233
2007-12-19 2 7 0 3 285
2007-12-20 0 4 1 0 262
2007-12-21 0 3 1 8 313
2007-12-22 4 12 0 5 568
2007-12-23 0 10 0 4 406
2007-12-24 1 7 1 3 4210
2007-12-25 1 9 0 3 296
2007-12-26 0 11 0 5 383
2007-12-27 0 5 0 4 331
2007-12-28 1 6 0 0 326
2007-12-29 1 1 0 0 221
2007-12-30 0 1 0 2 2196
2007-12-31 0 3 0 2 177
Novembre 2007 20 168 3 6 8467
Octobre 2007 21 147 4 5 8193
Septembre 2007 22 183 4 9 9896
Août 2007 23 226 2 6 9096
2007-08-01 1 11 0 0 281
2007-08-02 0 4 0 4 224
2007-08-03 2 13 1 0 357
2007-08-04 0 5 0 3 265
2007-08-05 0 0 0 1 129
2007-08-06 1 1 0 2 171
2007-08-07 1 2 0 0 211
2007-08-08 0 0 0 2 132
2007-08-09 1 3 0 2 133
2007-08-10 0 1 0 2 177
2007-08-11 0 0 0 2 104
2007-08-12 0 0 0 3 97
2007-08-13 0 3 0 3 220
2007-08-14 0 0 0 3 199
2007-08-15 0 0 0 0 163
2007-08-16 1 4 0 2 166
2007-08-17 0 6 0 5 274
2007-08-18 0 3 1 3 274
2007-08-19 1 4 0 3 258
2007-08-20 1 14 0 4 417
2007-08-21 2 9 0 3 352
2007-08-22 1 18 0 3 434
2007-08-23 1 12 0 4 412
2007-08-24 0 7 0 6 267
2007-08-25 0 7 0 5 265
2007-08-26 2 11 0 4 363
2007-08-27 1 27 0 6 720
2007-08-28 1 17 0 0 580
2007-08-29 2 9 0 0 492
2007-08-30 3 27 0 5 648
2007-08-31 1 8 0 5 311
Juillet 2007 18 127 1 4 10165
Juin 2007 25 309 2 6 13196
Mai 2007 30 315 8 7 11830
2007-05-01 1 4 0 3 287
2007-05-02 1 6 0 4 196
2007-05-03 0 15 0 4 377
2007-05-04 0 6 0 3 271
2007-05-05 1 5 1 6 235
2007-05-06 0 6 1 3 344
2007-05-07 3 19 0 5 507
2007-05-08 1 14 0 6 449
2007-05-09 0 14 0 4 339
2007-05-10 1 9 1 4 472
2007-05-11 1 18 0 4 499
2007-05-12 3 8 0 5 354
2007-05-13 1 10 0 4 358
2007-05-14 4 25 0 7 643
2007-05-15 0 22 1 4 517
2007-05-16 0 14 0 3 354
2007-05-17 0 3 0 4 229
2007-05-18 0 4 0 5 356
2007-05-19 1 6 0 5 346
2007-05-20 2 14 0 5 515
2007-05-21 2 18 0 6 530
2007-05-22 0 13 1 5 424
2007-05-23 2 11 1 4 427
2007-05-24 0 7 0 3 276
2007-05-25 1 9 0 3 488
2007-05-26 0 3 0 4 251
2007-05-27 3 5 0 3 276
2007-05-28 0 4 2 4 451
2007-05-29 1 11 0 5 439
2007-05-30 0 5 0 4 316
2007-05-31 1 7 0 4 304
Avril 2007 44 428 13 9 13382
Mars 2007 52 176 13 4 1693